Vorticity
4 5 2 2 4 4 8 10 6 1 8 4 4 6 12 0 2 3 2 7 5 6 9 8 8 7 6 3 7 11 5 6 5 3 4 3 5 5 4 0 1 1 3 5 5 5 10 10 10
5 3 3 2 3 5 6 5 13 5 2 7 4 15 9 6 3 1 1 4 9 7 9 8 7 7 6 5 7 11 10 8 3 2 2 6 4 5 5 3 2 2 4 8 3 4 1 3 5
8 4 3 2 5 4 4 8 11 8 4 6 -12 -16 7 6 -1 -1 2 3 7 9 8 10 7 6 7 5 6 9 7 3 4 1 2 5 8 5 2 2 2 4 6 4 8 2 3 6 7
6 9 5 1 2 1 2 4 10 12 8 11 -1 25 11 4 -4 -3 10 7 5 10 9 10 8 6 5 6 8 10 4 4 2 2 2 2 10 9 5 2 3 4 9 -0 7 2 7 10 11
0 8 8 6 3 2 2 5 14 17 9 10 -6 7 9 3 -4 -2 4 4 7 8 9 7 9 5 6 4 1 11 11 4 3 2 3 4 8 8 7 5 3 5 8 1 5 2 7 8 11
5 -1 7 8 3 4 2 4 16 14 10 11 4 7 4 3 -3 1 1 4 7 8 10 7 9 6 5 5 3 2 11 10 9 6 4 6 7 5 5 5 6 10 6 3 6 1 2 1 0
3 3 3 11 3 3 4 9 20 12 1 2 9 7 5 1 0 3 2 5 7 8 10 10 5 9 5 4 3 3 6 11 11 7 5 7 2 5 3 4 6 6 7 6 5 1 -0 -0 1
13 3 0 11 4 0 4 10 30 -5 -1 4 15 5 6 0 3 6 4 6 7 7 8 9 7 6 8 4 5 3 2 5 7 8 6 2 5 3 1 1 3 2 1 4 5 5 1 -0 -0
8 7 1 7 6 2 2 9 17 7 2 11 3 5 0 8 9 10 3 4 7 7 8 8 9 7 10 7 5 4 3 4 4 5 3 1 1 2 1 0 2 3 2 4 5 4 4 3 1
6 8 3 3 7 2 3 9 19 13 -2 19 6 4 11 7 1 2 2 3 2 7 9 10 8 8 11 10 6 5 5 4 5 5 4 4 4 4 4 4 4 5 3 -1 -1 3 6 5 3
6 7 6 2 7 3 3 7 16 24 -3 3 15 5 6 9 2 2 2 2 2 5 13 5 12 9 11 11 8 6 6 6 5 3 3 3 3 4 4 4 3 3 0 -3 -2 -1 4 4 7
6 5 7 3 5 6 4 6 16 19 0 1 3 10 10 1 7 2 2 4 2 3 11 11 8 10 10 9 9 6 5 5 5 6 5 4 3 3 3 2 3 -1 -1 2 1 3 11 6 7
7 5 6 7 0 7 4 9 7 15 6 4 4 12 9 12 6 2 2 3 1 5 -2 9 7 12 10 8 9 7 6 5 4 4 4 4 0 -0 2 3 3 2 4 2 2 9 7 5 6
6 8 5 10 3 8 6 10 9 8 4 5 5 8 7 4 2 -1 2 3 5 4 7 9 10 13 7 5 6 6 6 7 7 5 4 0 2 10 13 12 12 12 12 13 11 7 5 6 8
5 9 4 10 6 4 6 13 15 -1 5 2 2 -0 2 2 3 -3 2 1 2 7 6 12 9 10 6 4 5 4 4 4 3 2 3 9 9 11 12 13 12 9 8 7 9 7 8 9 5
6 8 2 10 8 6 3 15 13 7 1 2 4 1 0 1 9 4 1 3 6 10 10 9 7 4 3 3 3 5 4 5 10 14 12 13 12 12 12 12 11 8 8 8 9 8 7 7 5
5 4 5 5 8 5 7 5 13 7 6 -0 -2 6 16 17 12 11 5 12 16 11 8 5 4 2 2 4 4 7 10 16 18 16 14 13 11 10 10 11 13 14 14 16 14 14 13 14 15
4 5 8 5 11 6 9 8 9 18 17 13 9 -1 -0 12 7 16 16 19 10 5 2 1 2 2 3 5 8 11 14 12 10 9 9 8 9 9 8 9 9 7 7 6 6 5 4 4 3
5 6 5 2 9 4 11 8 6 0 -1 -4 4 -3 15 12 12 18 14 10 6 2 -1 -1 -1 1 6 8 12 14 11 10 9 9 10 8 5 4 3 3 4 4 4 4 4 5 5 7 6
7 6 4 7 7 1 11 7 2 1 4 7 8 21 6 10 9 9 6 6 3 0 -0 0 2 7 11 16 14 11 12 9 5 3 4 5 5 5 5 5 5 5 4 4 4 4 3 3 3
8 6 5 7 9 6 11 5 5 2 5 10 13 13 10 8 9 7 5 4 2 1 3 8 9 13 17 13 12 8 4 5 6 6 5 5 4 3 3 3 2 2 3 2 2 3 4 5 3
10 3 8 -0 -4 4 8 9 6 4 -1 6 12 12 10 9 7 5 2 0 3 5 7 11 14 15 9 5 6 7 6 5 5 4 3 2 2 2 2 3 4 5 8 11 13 15 14 14 12
16 7 7 8 2 5 4 15 5 7 7 5 5 11 7 7 4 3 4 3 4 8 14 14 8 5 5 6 5 6 4 3 3 2 3 3 4 6 10 12 12 10 8 5 4 4 5 5 5
5 8 8 7 6 10 4 12 2 6 4 8 8 7 5 3 3 3 3 5 12 14 10 7 5 4 5 4 4 2 2 3 4 5 7 10 11 7 4 4 4 5 7 6 3 2 3 4 6
2 2 6 4 11 4 4 9 1 3 4 2 5 8 6 4 4 3 5 11 15 10 5 5 4 5 4 3 3 4 5 6 9 9 5 2 3 5 6 6 6 3 0 -0 2 3 4 4 3
8 5 9 8 4 2 5 7 11 4 5 3 7 9 8 6 4 6 12 12 6 6 6 5 4 3 5 5 4 9 12 1 3 5 3 2 5 2 2 1 2 1 1 4 4 5 4 4 3
4 8 10 7 6 3 5 8 12 8 9 9 10 7 7 7 10 13 10 7 6 6 4 4 4 4 6 9 12 1 -3 3 2 1 -0 2 4 4 3 5 3 3 4 4 4 3 3 3 3
11 7 5 6 6 8 9 12 13 12 12 11 12 13 10 10 8 5 7 8 8 7 6 6 8 11 9 3 1 3 4 3 3 3 5 7 7 5 4 5 6 3 3 3 2 2 0 4 6
9 10 6 9 7 12 11 11 19 17 12 12 9 7 6 5 6 8 12 9 8 6 10 10 4 2 0 0 2 2 3 5 7 10 7 3 3 6 6 5 4 2 4 6 8 9 10 13 17
7 7 7 5 12 12 13 14 12 9 7 5 4 4 7 11 12 9 3 4 9 9 5 4 1 2 3 2 1 3 5 6 6 5 3 6 8 6 8 -1 4 5 10 11 12 13 15 14 22
Height
5836 5840 5841 5844 5848 5847 5847 5846 5845 5845 5849 5850 5852 5854 5856 5858 5860 5862 5859 5860 5860 5861 5860 5860 5859 5859 5859 5858 5858 5857 5857 5858 5859 5858 5857 5857 5858 5857 5857 5856 5855 5853 5852 5851 5849 5848 5846 5843 5841
5834 5837 5839 5841 5845 5845 5844 5843 5844 5844 5846 5848 5851 5852 5854 5856 5857 5858 5858 5858 5859 5859 5859 5858 5858 5857 5857 5857 5856 5856 5855 5856 5858 5857 5856 5856 5856 5855 5855 5854 5853 5852 5850 5849 5847 5845 5843 5841 5838
5833 5834 5837 5839 5842 5842 5841 5841 5842 5843 5844 5845 5848 5850 5852 5855 5856 5856 5856 5857 5857 5857 5856 5856 5856 5855 5855 5855 5855 5854 5854 5854 5855 5855 5854 5853 5854 5853 5852 5852 5851 5849 5848 5847 5845 5843 5841 5837 5834
5830 5832 5835 5837 5839 5839 5839 5839 5838 5839 5841 5843 5847 5849 5851 5852 5854 5854 5855 5855 5855 5855 5854 5854 5854 5854 5853 5853 5853 5852 5852 5852 5853 5853 5852 5851 5851 5850 5849 5849 5849 5847 5846 5844 5843 5840 5838 5835 5831
5828 5829 5832 5835 5836 5836 5836 5834 5836 5838 5840 5842 5845 5847 5848 5851 5852 5852 5853 5853 5853 5852 5852 5853 5852 5852 5851 5851 5851 5851 5850 5850 5850 5850 5850 5848 5848 5848 5847 5847 5846 5844 5843 5842 5840 5838 5835 5832 5829
5824 5827 5829 5832 5833 5832 5830 5832 5834 5837 5838 5840 5842 5844 5846 5848 5850 5851 5851 5850 5850 5850 5850 5851 5850 5850 5850 5849 5849 5849 5848 5847 5847 5847 5847 5846 5845 5845 5845 5844 5842 5842 5841 5839 5837 5835 5832 5829 5826
5821 5823 5826 5828 5827 5827 5829 5830 5832 5834 5836 5838 5840 5841 5844 5845 5847 5849 5850 5848 5849 5848 5849 5849 5848 5848 5848 5848 5848 5847 5846 5845 5844 5844 5843 5843 5843 5842 5842 5841 5840 5839 5837 5835 5833 5831 5828 5825 5823
5817 5819 5822 5824 5823 5825 5828 5829 5833 5833 5833 5836 5839 5842 5843 5844 5846 5848 5848 5847 5847 5847 5847 5847 5846 5845 5845 5845 5845 5845 5844 5843 5841 5841 5840 5840 5839 5839 5838 5836 5835 5834 5833 5831 5829 5827 5824 5822 5819
5812 5815 5818 5820 5821 5824 5825 5827 5830 5832 5836 5838 5839 5841 5842 5842 5844 5846 5847 5846 5845 5846 5846 5845 5844 5843 5842 5842 5842 5842 5841 5840 5839 5838 5837 5836 5835 5834 5833 5832 5830 5829 5828 5826 5824 5822 5819 5817 5815
5807 5812 5814 5817 5819 5821 5822 5825 5827 5832 5834 5836 5838 5839 5841 5841 5842 5844 5845 5845 5844 5843 5843 5842 5841 5839 5839 5838 5838 5838 5837 5836 5835 5834 5834 5833 5831 5830 5829 5827 5825 5824 5822 5820 5818 5816 5814 5811 5808
5806 5811 5810 5813 5815 5817 5820 5822 5824 5828 5832 5832 5835 5836 5840 5839 5840 5841 5842 5843 5842 5841 5840 5839 5838 5836 5835 5835 5834 5833 5833 5831 5830 5830 5829 5828 5826 5825 5823 5821 5820 5818 5816 5814 5812 5810 5807 5804 5801
5803 5805 5807 5809 5812 5815 5817 5820 5823 5826 5828 5828 5832 5834 5836 5837 5838 5839 5840 5840 5839 5838 5836 5835 5833 5831 5831 5830 5830 5829 5828 5827 5826 5826 5825 5823 5821 5819 5817 5815 5813 5811 5809 5807 5805 5802 5799 5796 5794
5797 5801 5802 5805 5809 5812 5814 5817 5819 5824 5824 5825 5828 5831 5833 5835 5835 5837 5837 5836 5835 5834 5833 5831 5829 5828 5827 5826 5826 5825 5825 5824 5822 5820 5819 5818 5816 5813 5811 5808 5806 5804 5802 5799 5796 5793 5790 5787 5785
5792 5795 5797 5803 5806 5809 5812 5814 5814 5822 5819 5824 5827 5829 5831 5832 5832 5832 5833 5831 5830 5829 5828 5828 5827 5826 5824 5823 5822 5821 5820 5819 5817 5815 5813 5811 5808 5805 5803 5800 5798 5795 5793 5790 5787 5784 5782 5779 5777
5787 5790 5794 5801 5801 5806 5807 5811 5814 5815 5819 5823 5825 5826 5828 5829 5828 5828 5827 5826 5826 5825 5824 5823 5823 5822 5821 5820 5818 5816 5815 5813 5811 5809 5807 5804 5800 5798 5795 5793 5791 5788 5785 5783 5780 5777 5774 5772 5769
5781 5786 5791 5794 5797 5801 5804 5809 5809 5812 5815 5819 5822 5823 5824 5823 5823 5823 5821 5821 5822 5821 5820 5818 5818 5817 5816 5815 5813 5811 5809 5807 5804 5801 5798 5795 5793 5791 5788 5786 5784 5781 5778 5776 5773 5769 5766 5763 5760
5775 5782 5788 5789 5794 5797 5801 5804 5806 5809 5812 5815 5817 5819 5820 5818 5818 5817 5817 5817 5817 5816 5815 5814 5814 5812 5811 5810 5808 5806 5803 5800 5797 5794 5791 5788 5787 5785 5782 5779 5776 5774 5771 5768 5765 5761 5757 5754 5751
5775 5779 5782 5786 5790 5793 5798 5801 5803 5806 5809 5812 5813 5815 5814 5813 5813 5813 5814 5813 5813 5812 5811 5811 5810 5808 5806 5804 5802 5799 5796 5793 5791 5788 5786 5784 5782 5779 5776 5774 5771 5767 5763 5759 5756 5752 5748 5744 5739
5770 5772 5778 5782 5786 5790 5793 5798 5801 5803 5805 5808 5809 5808 5808 5808 5808 5809 5809 5810 5809 5808 5807 5807 5806 5804 5801 5798 5795 5793 5790 5787 5785 5783 5781 5778 5775 5772 5769 5766 5762 5758 5754 5750 5745 5741 5736 5732 5727
5765 5770 5776 5778 5781 5786 5790 5793 5797 5799 5801 5803 5804 5803 5803 5804 5804 5804 5805 5805 5804 5804 5803 5802 5800 5798 5795 5792 5789 5788 5785 5783 5780 5777 5774 5771 5767 5763 5760 5756 5752 5748 5743 5739 5734 5728 5724 5721 5714
5763 5769 5773 5776 5779 5783 5786 5790 5793 5795 5797 5798 5799 5799 5800 5800 5800 5800 5799 5800 5800 5798 5796 5794 5792 5790 5788 5786 5784 5782 5779 5777 5774 5770 5766 5762 5758 5754 5749 5745 5741 5736 5731 5727 5722 5716 5711 5705 5701
5758 5766 5768 5772 5775 5779 5782 5787 5789 5791 5793 5794 5796 5797 5796 5796 5794 5795 5795 5794 5793 5790 5787 5785 5784 5782 5780 5779 5778 5775 5772 5769 5765 5761 5757 5753 5748 5743 5738 5734 5729 5724 5719 5714 5709 5703 5697 5692 5687
5763 5761 5764 5767 5771 5775 5779 5781 5786 5787 5788 5790 5791 5793 5792 5791 5789 5789 5789 5788 5785 5783 5781 5779 5777 5776 5774 5772 5770 5767 5763 5760 5756 5752 5748 5743 5738 5734 5730 5725 5719 5714 5709 5703 5698 5692 5684 5677 5671
5751 5756 5760 5763 5766 5770 5775 5777 5782 5782 5782 5785 5787 5788 5787 5785 5783 5784 5783 5782 5780 5779 5776 5772 5771 5768 5766 5764 5761 5757 5754 5750 5746 5742 5738 5733 5729 5724 5718 5712 5707 5701 5695 5689 5683 5677 5669 5663 5656
5746 5751 5754 5758 5761 5768 5770 5773 5779 5777 5777 5780 5782 5782 5780 5780 5778 5778 5778 5777 5776 5772 5769 5766 5763 5761 5758 5755 5752 5749 5745 5741 5737 5733 5728 5723 5717 5711 5704 5698 5692 5686 5679 5672 5666 5659 5652 5645 5638
5747 5750 5753 5755 5759 5762 5764 5768 5772 5773 5773 5775 5776 5775 5774 5774 5773 5773 5773 5772 5769 5766 5762 5759 5756 5753 5750 5747 5744 5740 5736 5732 5727 5722 5717 5711 5705 5699 5692 5685 5678 5670 5663 5655 5648 5641 5633 5624 5616
5742 5745 5750 5751 5753 5755 5759 5763 5767 5767 5768 5769 5769 5767 5768 5768 5767 5767 5768 5766 5762 5758 5754 5751 5748 5745 5742 5739 5735 5731 5726 5720 5715 5709 5703 5697 5690 5684 5677 5669 5662 5653 5644 5635 5626 5618 5610 5601 5593
5736 5742 5744 5746 5750 5751 5754 5758 5760 5762 5763 5763 5763 5763 5762 5763 5762 5762 5761 5757 5753 5750 5747 5743 5741 5737 5734 5730 5725 5720 5715 5709 5703 5697 5690 5683 5676 5668 5660 5651 5642 5632 5623 5613 5603 5595 5586 5578 5569
5734 5737 5739 5743 5745 5747 5749 5752 5755 5756 5756 5757 5758 5757 5757 5757 5757 5755 5752 5748 5745 5742 5739 5736 5733 5729 5725 5720 5715 5709 5703 5697 5690 5683 5675 5667 5659 5649 5640 5631 5621 5612 5603 5592 5582 5571 5561 5553 5544
5728 5732 5735 5738 5743 5743 5745 5748 5750 5751 5752 5752 5752 5752 5751 5751 5751 5748 5743 5740 5737 5734 5731 5727 5724 5720 5714 5709 5703 5697 5690 5683 5675 5666 5657 5648 5639 5629 5620 5611 5601 5589 5578 5566 5555 5545 5534 5524 5516